Time,TemperatureF,DewpointF,PressureIn,WindDirection,WindDirectionDegrees,WindSpeedMPH,WindSpeedGustMPH,Humidity,HourlyPrecipIn,Conditions,Clouds,dailyrainin,SoftwareType,DateUTC
2013-12-09 00:00:00,17.0,15.1,29.89,NW,311,0.0,0.0,92,0.00,,---,0.00,VWS V14.00,2013-12-09 06:00:00,
2013-12-09 00:03:00,16.9,15.0,29.89,NW,311,0.0,2.0,92,0.00,,---,0.00,VWS V14.00,2013-12-09 06:03:00,
2013-12-09 00:05:00,16.9,15.0,29.89,NW,311,0.0,2.0,92,0.00,,---,0.00,VWS V14.00,2013-12-09 06:05:00,
2013-12-09 00:08:00,16.8,14.9,29.89,NW,310,0.0,4.0,92,0.00,,---,0.00,VWS V14.00,2013-12-09 06:08:00,
2013-12-09 00:10:00,16.8,14.9,29.89,NW,311,0.0,4.0,92,0.00,,---,0.00,VWS V14.00,2013-12-09 06:10:00,
2013-12-09 00:13:00,16.7,14.8,29.88,NW,311,0.0,3.0,92,0.00,,---,0.00,VWS V14.00,2013-12-09 06:13:00,
2013-12-09 00:15:00,16.7,14.8,29.88,NW,311,0.0,3.0,92,0.00,,---,0.00,VWS V14.00,2013-12-09 06:15:00,
2013-12-09 00:18:00,16.7,14.8,29.88,NW,311,0.0,0.0,92,0.00,,---,0.00,VWS V14.00,2013-12-09 06:18:00,
2013-12-09 00:20:00,16.7,14.8,29.88,NW,310,1.0,2.0,92,0.00,,---,0.00,VWS V14.00,2013-12-09 06:20:00,
2013-12-09 00:23:00,16.7,14.8,29.88,NW,310,0.0,1.0,92,0.00,,---,0.00,VWS V14.00,2013-12-09 06:23:00,
2013-12-09 00:25:00,16.6,14.7,29.88,NW,311,0.0,1.0,92,0.00,,---,0.00,VWS V14.00,2013-12-09 06:25:00,
2013-12-09 00:28:00,16.6,14.7,29.88,NW,311,0.0,1.0,92,0.00,,---,0.00,VWS V14.00,2013-12-09 06:28:00,
2013-12-09 00:30:00,16.6,14.7,29.88,NW,311,0.0,1.0,92,0.00,,---,0.00,VWS V14.00,2013-12-09 06:30:00,
2013-12-09 00:33:00,16.6,14.7,29.88,NW,311,0.0,0.0,92,0.00,,---,0.00,VWS V14.00,2013-12-09 06:33:00,
2013-12-09 00:35:00,16.6,14.7,29.88,NW,310,0.0,0.0,92,0.00,,---,0.00,VWS V14.00,2013-12-09 06:35:00,
2013-12-09 00:38:00,16.6,14.7,29.88,NW,311,0.0,0.0,92,0.00,,---,0.00,VWS V14.00,2013-12-09 06:38:00,
2013-12-09 00:40:00,16.6,14.7,29.88,NW,310,0.0,0.0,92,0.00,,---,0.00,VWS V14.00,2013-12-09 06:40:00,
2013-12-09 00:43:00,16.6,14.7,29.88,NW,311,0.0,0.0,92,0.00,,---,0.00,VWS V14.00,2013-12-09 06:43:00,
2013-12-09 00:45:00,16.6,14.7,29.88,NW,311,0.0,0.0,92,0.00,,---,0.00,VWS V14.00,2013-12-09 06:45:00,
2013-12-09 00:48:00,16.6,14.7,29.88,NW,310,0.0,0.0,92,0.00,,---,0.00,VWS V14.00,2013-12-09 06:48:00,
2013-12-09 00:50:00,16.6,14.7,29.88,NW,311,0.0,0.0,92,0.00,,---,0.00,VWS V14.00,2013-12-09 06:50:00,
2013-12-09 00:53:00,16.6,14.7,29.87,NW,311,0.0,0.0,92,0.00,,---,0.00,VWS V14.00,2013-12-09 06:53:00,
2013-12-09 00:55:00,16.6,14.7,29.87,NW,310,0.0,1.0,92,0.00,,---,0.00,VWS V14.00,2013-12-09 06:55:00,
2013-12-09 00:58:00,16.6,14.7,29.87,NW,311,0.0,0.0,92,0.00,,---,0.00,VWS V14.00,2013-12-09 06:58:00,
2013-12-09 01:00:00,16.6,14.7,29.87,NW,310,0.0,2.0,92,0.00,,---,0.00,VWS V14.00,2013-12-09 07:00:00,
2013-12-09 01:03:00,16.6,14.7,29.87,NW,311,0.0,0.0,92,0.00,,---,0.00,VWS V14.00,2013-12-09 07:03:00,
2013-12-09 01:05:00,16.6,14.7,29.87,NW,311,0.0,0.0,92,0.00,,---,0.00,VWS V14.00,2013-12-09 07:05:00,
2013-12-09 01:08:00,16.6,14.7,29.87,NW,310,0.0,1.0,92,0.00,,---,0.00,VWS V14.00,2013-12-09 07:08:00,
2013-12-09 01:10:00,16.6,14.7,29.87,NW,311,0.0,1.0,92,0.00,,---,0.00,VWS V14.00,2013-12-09 07:10:00,
2013-12-09 01:13:00,16.6,14.7,29.87,NW,311,0.0,0.0,92,0.00,,---,0.00,VWS V14.00,2013-12-09 07:13:00,
2013-12-09 01:15:00,16.6,14.7,29.87,NW,311,0.0,0.0,92,0.00,,---,0.00,VWS V14.00,2013-12-09 07:15:00,
2013-12-09 01:18:00,16.6,14.7,29.87,NW,311,0.0,1.0,92,0.00,,---,0.00,VWS V14.00,2013-12-09 07:18:00,
2013-12-09 01:20:00,16.6,14.7,29.87,NW,310,0.0,1.0,92,0.00,,---,0.00,VWS V14.00,2013-12-09 07:20:00,
2013-12-09 01:23:00,16.5,14.6,29.86,NW,311,0.0,0.0,92,0.00,,---,0.00,VWS V14.00,2013-12-09 07:23:00,
2013-12-09 01:25:00,16.5,14.6,29.86,NW,311,0.0,0.0,92,0.00,,---,0.00,VWS V14.00,2013-12-09 07:25:00,
2013-12-09 01:28:00,16.5,14.6,29.87,NW,310,0.0,0.0,92,0.00,,---,0.00,VWS V14.00,2013-12-09 07:28:00,
2013-12-09 01:30:00,16.5,14.6,29.87,NW,310,0.0,0.0,92,0.00,,---,0.00,VWS V14.00,2013-12-09 07:30:00,
2013-12-09 01:33:00,16.5,14.6,29.87,NW,310,0.0,0.0,92,0.00,,---,0.00,VWS V14.00,2013-12-09 07:33:00,
2013-12-09 01:35:00,16.4,14.5,29.87,NW,310,0.0,1.0,92,0.00,,---,0.00,VWS V14.00,2013-12-09 07:35:00,
2013-12-09 01:38:00,16.4,14.5,29.88,NW,310,0.0,2.0,92,0.00,,---,0.00,VWS V14.00,2013-12-09 07:38:00,
2013-12-09 01:40:00,16.3,14.4,29.88,NW,310,0.0,2.0,92,0.00,,---,0.00,VWS V14.00,2013-12-09 07:40:00,
2013-12-09 01:43:00,16.3,14.4,29.88,NW,310,0.0,1.0,92,0.00,,---,0.00,VWS V14.00,2013-12-09 07:43:00,
2013-12-09 01:48:00,16.2,14.3,29.88,NW,310,0.0,2.0,92,0.00,,---,0.00,VWS V14.00,2013-12-09 07:48:00,
2013-12-09 01:50:00,16.2,14.0,29.88,NW,310,0.0,2.0,91,0.00,,---,0.00,VWS V14.00,2013-12-09 07:50:00,
2013-12-09 01:53:00,16.2,14.3,29.88,WNW,302,0.0,2.0,92,0.00,,---,0.00,VWS V14.00,2013-12-09 07:53:00,
2013-12-09 01:55:00,16.1,14.2,29.88,NW,311,0.0,3.0,92,0.00,,---,0.00,VWS V14.00,2013-12-09 07:55:00,
2013-12-09 01:58:00,16.1,14.2,29.88,WNW,302,0.0,3.0,92,0.00,,---,0.00,VWS V14.00,2013-12-09 07:58:00,
2013-12-09 02:00:00,16.1,14.2,29.88,WNW,302,0.0,3.0,92,0.00,,---,0.00,VWS V14.00,2013-12-09 08:00:00,
2013-12-09 02:03:00,16.0,14.1,29.88,WNW,302,0.0,0.0,92,0.00,,---,0.00,VWS V14.00,2013-12-09 08:03:00,
2013-12-09 02:05:00,16.0,14.1,29.88,WNW,302,0.0,0.0,92,0.00,,---,0.00,VWS V14.00,2013-12-09 08:05:00,
2013-12-09 02:08:00,15.9,13.7,29.88,WNW,302,0.0,0.0,91,0.00,,---,0.00,VWS V14.00,2013-12-09 08:08:00,
2013-12-09 02:10:00,15.9,13.7,29.88,WNW,302,0.0,0.0,91,0.00,,---,0.00,VWS V14.00,2013-12-09 08:10:00,
2013-12-09 02:13:00,15.8,13.6,29.89,WNW,302,0.0,0.0,91,0.00,,---,0.00,VWS V14.00,2013-12-09 08:13:00,
2013-12-09 02:15:00,15.8,13.6,29.89,WNW,302,0.0,0.0,91,0.00,,---,0.00,VWS V14.00,2013-12-09 08:15:00,
2013-12-09 02:18:00,15.7,13.5,29.88,WNW,302,0.0,0.0,91,0.00,,---,0.00,VWS V14.00,2013-12-09 08:18:00,
2013-12-09 02:20:00,15.7,13.6,29.88,WNW,302,0.0,0.0,91,0.00,,---,0.00,VWS V14.00,2013-12-09 08:20:00,
2013-12-09 02:23:00,15.5,13.4,29.88,WNW,302,0.0,0.0,91,0.00,,---,0.00,VWS V14.00,2013-12-09 08:23:00,
2013-12-09 02:25:00,15.5,13.4,29.88,WNW,302,0.0,0.0,91,0.00,,---,0.00,VWS V14.00,2013-12-09 08:25:00,
2013-12-09 02:28:00,15.4,13.2,29.89,WNW,302,0.0,0.0,91,0.00,,---,0.00,VWS V14.00,2013-12-09 08:28:00,
2013-12-09 02:30:00,15.4,13.2,29.89,WNW,302,0.0,0.0,91,0.00,,---,0.00,VWS V14.00,2013-12-09 08:30:00,
2013-12-09 02:33:00,15.3,13.1,29.89,WNW,302,0.0,1.0,91,0.00,,---,0.00,VWS V14.00,2013-12-09 08:33:00,
2013-12-09 02:35:00,15.3,13.1,29.89,WNW,302,0.0,1.0,91,0.00,,---,0.00,VWS V14.00,2013-12-09 08:35:00,
2013-12-09 02:38:00,15.3,13.1,29.89,WNW,302,0.0,0.0,91,0.00,,---,0.00,VWS V14.00,2013-12-09 08:38:00,
2013-12-09 02:40:00,15.3,13.1,29.89,WNW,302,0.0,0.0,91,0.00,,---,0.00,VWS V14.00,2013-12-09 08:40:00,
2013-12-09 02:43:00,15.3,13.1,29.89,WNW,300,0.0,0.0,91,0.00,,---,0.00,VWS V14.00,2013-12-09 08:43:00,
2013-12-09 02:45:00,15.3,13.1,29.89,WNW,300,0.0,0.0,91,0.00,,---,0.00,VWS V14.00,2013-12-09 08:45:00,
2013-12-09 02:48:00,15.4,13.5,29.89,WNW,300,0.0,0.0,92,0.00,,---,0.00,VWS V14.00,2013-12-09 08:48:00,
2013-12-09 02:50:00,15.4,13.5,29.89,WNW,300,0.0,0.0,92,0.00,,---,0.00,VWS V14.00,2013-12-09 08:50:00,
2013-12-09 02:53:00,15.4,13.5,29.89,WNW,300,0.0,0.0,92,0.00,,---,0.00,VWS V14.00,2013-12-09 08:53:00,
2013-12-09 02:55:00,15.4,13.5,29.89,WNW,300,0.0,1.0,92,0.00,,---,0.00,VWS V14.00,2013-12-09 08:55:00,
2013-12-09 02:56:00,15.4,13.5,29.89,WNW,300,0.0,0.0,92,0.00,,---,0.00,VWS V14.00,2013-12-09 08:56:00,
2013-12-09 03:00:00,15.4,13.5,29.89,WNW,300,0.0,0.0,92,0.00,,---,0.00,VWS V14.00,2013-12-09 09:00:00,
2013-12-09 03:01:00,15.4,13.5,29.89,WNW,300,0.0,0.0,92,0.00,,---,0.00,VWS V14.00,2013-12-09 09:01:00,
2013-12-09 03:05:00,15.4,13.5,29.89,WNW,300,0.0,0.0,92,0.00,,---,0.00,VWS V14.00,2013-12-09 09:05:00,
2013-12-09 03:06:00,15.4,13.5,29.89,WNW,300,0.0,1.0,92,0.00,,---,0.00,VWS V14.00,2013-12-09 09:06:00,
2013-12-09 03:10:00,15.4,13.5,29.89,West,259,1.0,1.0,92,0.00,,---,0.00,VWS V14.00,2013-12-09 09:10:00,
2013-12-09 03:11:00,15.4,13.2,29.89,WSW,254,0.0,4.0,91,0.00,,---,0.00,VWS V14.00,2013-12-09 09:11:00,
2013-12-09 03:15:00,15.3,13.1,29.89,WSW,255,0.0,4.0,91,0.00,,---,0.00,VWS V14.00,2013-12-09 09:15:00,
2013-12-09 03:16:00,15.3,13.1,29.89,WSW,255,0.0,0.0,91,0.00,,---,0.00,VWS V14.00,2013-12-09 09:16:00,
2013-12-09 03:20:00,15.3,13.1,29.89,WSW,255,1.0,2.0,91,0.00,,---,0.00,VWS V14.00,2013-12-09 09:20:00,
2013-12-09 03:21:00,15.2,13.1,29.89,WSW,255,0.0,1.0,91,0.00,,---,0.00,VWS V14.00,2013-12-09 09:21:00,
2013-12-09 03:25:00,15.1,12.9,29.89,WSW,257,0.0,4.0,91,0.00,,---,0.00,VWS V14.00,2013-12-09 09:25:00,
2013-12-09 03:26:00,15.0,12.9,29.89,WSW,257,0.0,2.0,91,0.00,,---,0.00,VWS V14.00,2013-12-09 09:26:00,
2013-12-09 03:30:00,14.9,12.8,29.89,West,273,0.0,2.0,91,0.00,,---,0.00,VWS V14.00,2013-12-09 09:30:00,
2013-12-09 03:31:00,14.8,12.6,29.90,West,273,0.0,3.0,91,0.00,,---,0.00,VWS V14.00,2013-12-09 09:31:00,
2013-12-09 03:35:00,14.7,12.6,29.90,West,273,0.0,3.0,91,0.00,,---,0.00,VWS V14.00,2013-12-09 09:35:00,
2013-12-09 03:36:00,14.7,12.6,29.90,WSW,240,0.0,2.0,91,0.00,,---,0.00,VWS V14.00,2013-12-09 09:36:00,
2013-12-09 03:40:00,14.5,12.4,29.90,WSW,240,0.0,2.0,91,0.00,,---,0.00,VWS V14.00,2013-12-09 09:40:00,
2013-12-09 03:41:00,14.4,12.3,29.90,WSW,240,0.0,0.0,91,0.00,,---,0.00,VWS V14.00,2013-12-09 09:41:00,
2013-12-09 03:45:00,14.3,12.2,29.89,WNW,290,0.0,2.0,91,0.00,,---,0.00,VWS V14.00,2013-12-09 09:45:00,
2013-12-09 03:46:00,14.1,12.0,29.89,NW,310,0.0,2.0,91,0.00,,---,0.00,VWS V14.00,2013-12-09 09:46:00,
2013-12-09 03:50:00,13.9,11.8,29.90,NW,307,1.0,2.0,91,0.00,,---,0.00,VWS V14.00,2013-12-09 09:50:00,
2013-12-09 03:51:00,13.8,11.7,29.90,NW,307,0.0,2.0,91,0.00,,---,0.00,VWS V14.00,2013-12-09 09:51:00,
2013-12-09 03:55:00,13.6,11.5,29.90,NW,307,0.0,2.0,91,0.00,,---,0.00,VWS V14.00,2013-12-09 09:55:00,
2013-12-09 03:56:00,13.6,11.5,29.90,WNW,297,0.0,1.0,91,0.00,,---,0.00,VWS V14.00,2013-12-09 09:56:00,
2013-12-09 04:00:00,13.5,11.4,29.90,NW,313,0.0,2.0,91,0.00,,---,0.00,VWS V14.00,2013-12-09 10:00:00,
2013-12-09 04:01:00,13.4,11.3,29.90,WNW,283,0.0,5.0,91,0.00,,---,0.00,VWS V14.00,2013-12-09 10:01:00,
2013-12-09 04:05:00,13.3,11.2,29.90,WNW,287,0.0,5.0,91,0.00,,---,0.00,VWS V14.00,2013-12-09 10:05:00,
2013-12-09 04:06:00,13.3,11.2,29.90,WNW,288,1.0,2.0,91,0.00,,---,0.00,VWS V14.00,2013-12-09 10:06:00,
2013-12-09 04:10:00,13.1,11.0,29.90,WNW,286,0.0,2.0,91,0.00,,---,0.00,VWS V14.00,2013-12-09 10:10:00,
2013-12-09 04:11:00,13.1,11.0,29.90,West,270,2.0,3.0,91,0.00,,---,0.00,VWS V14.00,2013-12-09 10:11:00,
2013-12-09 04:15:00,13.0,10.9,29.90,WNW,292,1.0,3.0,91,0.00,,---,0.00,VWS V14.00,2013-12-09 10:15:00,
2013-12-09 04:16:00,12.8,10.7,29.90,WNW,292,0.0,2.0,91,0.00,,---,0.00,VWS V14.00,2013-12-09 10:16:00,
2013-12-09 04:20:00,12.7,10.6,29.90,WNW,292,0.0,2.0,91,0.00,,---,0.00,VWS V14.00,2013-12-09 10:20:00,
2013-12-09 04:21:00,12.7,10.6,29.90,WNW,292,0.0,1.0,91,0.00,,---,0.00,VWS V14.00,2013-12-09 10:21:00,
2013-12-09 04:25:00,12.5,10.4,29.90,WNW,292,0.0,2.0,91,0.00,,---,0.00,VWS V14.00,2013-12-09 10:25:00,
2013-12-09 04:26:00,12.5,10.4,29.90,WNW,292,0.0,2.0,91,0.00,,---,0.00,VWS V14.00,2013-12-09 10:26:00,
2013-12-09 04:30:00,12.3,9.9,29.90,WNW,292,0.0,2.0,90,0.00,,---,0.00,VWS V14.00,2013-12-09 10:30:00,
2013-12-09 04:31:00,12.3,10.2,29.90,WNW,290,0.0,2.0,91,0.00,,---,0.00,VWS V14.00,2013-12-09 10:31:00,
2013-12-09 04:35:00,12.2,10.1,29.90,WNW,290,0.0,2.0,91,0.00,,---,0.00,VWS V14.00,2013-12-09 10:35:00,
2013-12-09 04:36:00,12.1,10.0,29.90,WNW,290,1.0,1.0,91,0.00,,---,0.00,VWS V14.00,2013-12-09 10:36:00,
2013-12-09 04:40:00,12.1,10.0,29.90,WNW,290,0.0,2.0,91,0.00,,---,0.00,VWS V14.00,2013-12-09 10:40:00,
2013-12-09 04:41:00,12.0,9.9,29.90,WNW,290,1.0,2.0,91,0.00,,---,0.00,VWS V14.00,2013-12-09 10:41:00,
2013-12-09 04:45:00,12.1,10.0,29.90,West,280,0.0,6.0,91,0.00,,---,0.00,VWS V14.00,2013-12-09 10:45:00,
2013-12-09 04:46:00,12.1,10.0,29.90,WNW,286,1.0,5.0,91,0.00,,---,0.00,VWS V14.00,2013-12-09 10:46:00,
2013-12-09 04:50:00,12.1,10.0,29.90,WNW,283,3.0,5.0,91,0.00,,---,0.00,VWS V14.00,2013-12-09 10:50:00,
2013-12-09 04:51:00,12.1,10.0,29.90,WNW,291,1.0,3.0,91,0.00,,---,0.00,VWS V14.00,2013-12-09 10:51:00,
2013-12-09 04:55:00,12.0,9.9,29.90,WNW,286,2.0,3.0,91,0.00,,---,0.00,VWS V14.00,2013-12-09 10:55:00,
2013-12-09 04:56:00,12.0,9.9,29.90,WNW,284,0.0,2.0,91,0.00,,---,0.00,VWS V14.00,2013-12-09 10:56:00,
2013-12-09 05:00:00,11.9,9.8,29.91,West,261,0.0,3.0,91,0.00,,---,0.00,VWS V14.00,2013-12-09 11:00:00,
2013-12-09 05:01:00,11.9,9.8,29.91,West,276,0.0,3.0,91,0.00,,---,0.00,VWS V14.00,2013-12-09 11:01:00,
2013-12-09 05:05:00,11.9,9.8,29.91,WNW,292,2.0,4.0,91,0.00,,---,0.00,VWS V14.00,2013-12-09 11:05:00,
2013-12-09 05:06:00,11.9,9.8,29.91,WNW,284,0.0,5.0,91,0.00,,---,0.00,VWS V14.00,2013-12-09 11:06:00,
2013-12-09 05:10:00,12.0,9.9,29.91,WNW,288,1.0,5.0,91,0.00,,---,0.00,VWS V14.00,2013-12-09 11:10:00,
2013-12-09 05:11:00,12.0,9.9,29.91,West,281,2.0,2.0,91,0.00,,---,0.00,VWS V14.00,2013-12-09 11:11:00,
2013-12-09 05:15:00,11.9,9.8,29.91,WNW,288,0.0,3.0,91,0.00,,---,0.00,VWS V14.00,2013-12-09 11:15:00,
2013-12-09 05:16:00,11.9,9.8,29.91,West,259,2.0,4.0,91,0.00,,---,0.00,VWS V14.00,2013-12-09 11:16:00,
2013-12-09 05:20:00,11.9,9.8,29.91,West,279,0.0,4.0,91,0.00,,---,0.00,VWS V14.00,2013-12-09 11:20:00,
2013-12-09 05:21:00,11.8,9.7,29.91,WSW,238,2.0,3.0,91,0.00,,---,0.00,VWS V14.00,2013-12-09 11:21:00,
2013-12-09 05:25:00,11.8,9.7,29.91,WSW,255,0.0,3.0,91,0.00,,---,0.00,VWS V14.00,2013-12-09 11:25:00,
2013-12-09 05:26:00,11.7,9.3,29.91,WSW,253,0.0,2.0,90,0.00,,---,0.00,VWS V14.00,2013-12-09 11:26:00,
2013-12-09 05:30:00,11.6,9.2,29.91,WSW,253,0.0,2.0,90,0.00,,---,0.00,VWS V14.00,2013-12-09 11:30:00,
2013-12-09 05:31:00,11.5,9.1,29.91,WSW,253,0.0,1.0,90,0.00,,---,0.00,VWS V14.00,2013-12-09 11:31:00,
2013-12-09 05:35:00,11.4,9.0,29.91,WSW,253,1.0,1.0,90,0.00,,---,0.00,VWS V14.00,2013-12-09 11:35:00,
2013-12-09 05:36:00,11.3,8.9,29.91,WSW,253,0.0,1.0,90,0.00,,---,0.00,VWS V14.00,2013-12-09 11:36:00,
2013-12-09 05:40:00,11.2,8.9,29.91,WSW,253,0.0,1.0,90,0.00,,---,0.00,VWS V14.00,2013-12-09 11:40:00,
2013-12-09 05:41:00,11.1,8.8,29.91,WSW,253,0.0,0.0,90,0.00,,---,0.00,VWS V14.00,2013-12-09 11:41:00,
2013-12-09 05:45:00,11.0,8.6,29.91,WSW,253,0.0,1.0,90,0.00,,---,0.00,VWS V14.00,2013-12-09 11:45:00,
2013-12-09 05:46:00,10.9,8.6,29.91,WSW,253,0.0,0.0,90,0.00,,---,0.00,VWS V14.00,2013-12-09 11:46:00,
2013-12-09 05:50:00,10.7,8.4,29.91,WSW,253,0.0,0.0,90,0.00,,---,0.00,VWS V14.00,2013-12-09 11:50:00,
2013-12-09 05:51:00,10.7,8.4,29.91,WSW,253,0.0,0.0,90,0.00,,---,0.00,VWS V14.00,2013-12-09 11:51:00,
2013-12-09 05:55:00,10.6,8.2,29.91,WSW,253,0.0,1.0,90,0.00,,---,0.00,VWS V14.00,2013-12-09 11:55:00,
2013-12-09 05:56:00,10.6,8.2,29.91,WSW,253,0.0,0.0,90,0.00,,---,0.00,VWS V14.00,2013-12-09 11:56:00,
2013-12-09 06:00:00,10.6,8.2,29.91,WSW,253,0.0,1.0,90,0.00,,---,0.00,VWS V14.00,2013-12-09 12:00:00,
2013-12-09 06:01:00,10.6,8.2,29.91,WSW,253,0.0,0.0,90,0.00,,---,0.00,VWS V14.00,2013-12-09 12:01:00,
2013-12-09 06:05:00,10.5,8.1,29.91,WSW,253,0.0,1.0,90,0.00,,---,0.00,VWS V14.00,2013-12-09 12:05:00,
2013-12-09 06:06:00,10.4,8.1,29.91,WSW,253,0.0,0.0,90,0.00,,---,0.00,VWS V14.00,2013-12-09 12:06:00,
2013-12-09 06:10:00,10.3,7.9,29.92,WSW,253,0.0,0.0,90,0.00,,---,0.00,VWS V14.00,2013-12-09 12:10:00,
2013-12-09 06:11:00,10.2,7.9,29.92,WSW,253,0.0,0.0,90,0.00,,---,0.00,VWS V14.00,2013-12-09 12:11:00,
2013-12-09 06:15:00,10.1,7.8,29.92,WSW,253,1.0,1.0,90,0.00,,---,0.00,VWS V14.00,2013-12-09 12:15:00,
2013-12-09 06:16:00,10.0,7.7,29.92,WSW,253,0.0,1.0,90,0.00,,---,0.00,VWS V14.00,2013-12-09 12:16:00,
2013-12-09 06:20:00,9.8,7.5,29.92,WSW,253,0.0,1.0,90,0.00,,---,0.00,VWS V14.00,2013-12-09 12:20:00,
2013-12-09 06:21:00,9.7,7.4,29.92,WSW,253,0.0,0.0,90,0.00,,---,0.00,VWS V14.00,2013-12-09 12:21:00,
2013-12-09 06:25:00,9.6,7.3,29.92,WSW,253,0.0,0.0,90,0.00,,---,0.00,VWS V14.00,2013-12-09 12:25:00,
2013-12-09 06:26:00,9.5,7.2,29.92,WSW,253,0.0,0.0,90,0.00,,---,0.00,VWS V14.00,2013-12-09 12:26:00,
2013-12-09 06:30:00,9.4,7.1,29.92,WSW,253,0.0,0.0,90,0.00,,---,0.00,VWS V14.00,2013-12-09 12:30:00,
2013-12-09 06:31:00,9.4,7.1,29.92,WSW,253,0.0,0.0,90,0.00,,---,0.00,VWS V14.00,2013-12-09 12:31:00,
2013-12-09 06:35:00,9.3,7.0,29.92,WSW,253,0.0,1.0,90,0.00,,---,0.00,VWS V14.00,2013-12-09 12:35:00,
2013-12-09 06:36:00,9.3,7.0,29.93,WSW,253,0.0,0.0,90,0.00,,---,0.00,VWS V14.00,2013-12-09 12:36:00,
2013-12-09 06:40:00,9.4,7.1,29.93,WSW,253,0.0,1.0,90,0.00,,---,0.00,VWS V14.00,2013-12-09 12:40:00,
2013-12-09 06:41:00,9.4,7.1,29.93,WSW,253,0.0,0.0,90,0.00,,---,0.00,VWS V14.00,2013-12-09 12:41:00,
2013-12-09 06:45:00,9.4,7.1,29.94,WSW,253,0.0,0.0,90,0.00,,---,0.00,VWS V14.00,2013-12-09 12:45:00,
2013-12-09 06:46:00,9.4,7.1,29.94,WSW,253,0.0,0.0,90,0.00,,---,0.00,VWS V14.00,2013-12-09 12:46:00,
2013-12-09 06:50:00,9.3,7.0,29.94,WSW,253,0.0,1.0,90,0.00,,---,0.00,VWS V14.00,2013-12-09 12:50:00,
2013-12-09 06:51:00,9.2,6.9,29.94,WSW,253,0.0,0.0,90,0.00,,---,0.00,VWS V14.00,2013-12-09 12:51:00,
2013-12-09 06:55:00,9.1,6.8,29.94,WSW,253,0.0,0.0,90,0.00,,---,0.00,VWS V14.00,2013-12-09 12:55:00,
2013-12-09 06:56:00,9.0,6.7,29.95,WSW,253,0.0,0.0,90,0.00,,---,0.00,VWS V14.00,2013-12-09 12:56:00,
2013-12-09 07:00:00,8.9,6.6,29.95,WSW,253,0.0,0.0,90,0.00,,---,0.00,VWS V14.00,2013-12-09 13:00:00,
2013-12-09 07:01:00,8.8,6.5,29.95,WSW,253,0.0,0.0,90,0.00,,---,0.00,VWS V14.00,2013-12-09 13:01:00,
2013-12-09 07:05:00,8.8,6.5,29.95,WSW,253,0.0,0.0,90,0.00,,---,0.00,VWS V14.00,2013-12-09 13:05:00,
2013-12-09 07:06:00,8.8,6.5,29.95,WSW,253,0.0,0.0,90,0.00,,---,0.00,VWS V14.00,2013-12-09 13:06:00,
2013-12-09 07:10:00,8.9,6.6,29.95,WSW,253,1.0,1.0,90,0.00,,---,0.00,VWS V14.00,2013-12-09 13:10:00,
2013-12-09 07:11:00,9.0,6.9,29.95,West,264,0.0,3.0,91,0.00,,---,0.00,VWS V14.00,2013-12-09 13:11:00,
2013-12-09 07:15:00,9.3,7.2,29.95,West,264,0.0,0.0,91,0.00,,---,0.00,VWS V14.00,2013-12-09 13:15:00,
2013-12-09 07:20:00,9.5,7.4,29.95,WSW,242,0.0,0.0,91,0.00,,---,0.00,VWS V14.00,2013-12-09 13:20:00,
2013-12-09 07:25:00,9.5,7.4,29.95,WSW,242,0.0,1.0,91,0.00,,---,0.00,VWS V14.00,2013-12-09 13:25:00,
2013-12-09 07:30:00,9.5,7.4,29.96,WSW,242,0.0,0.0,91,0.00,,---,0.00,VWS V14.00,2013-12-09 13:30:00,
2013-12-09 07:35:00,9.5,7.4,29.96,WSW,242,0.0,0.0,91,0.00,,---,0.00,VWS V14.00,2013-12-09 13:35:00,
2013-12-09 07:40:00,9.5,7.4,29.96,WSW,243,1.0,2.0,91,0.00,,---,0.00,VWS V14.00,2013-12-09 13:40:00,
2013-12-09 07:45:00,9.6,7.5,29.97,WSW,242,0.0,1.0,91,0.00,,---,0.00,VWS V14.00,2013-12-09 13:45:00,
2013-12-09 07:50:00,9.7,7.6,29.97,WSW,243,0.0,0.0,91,0.00,,---,0.00,VWS V14.00,2013-12-09 13:50:00,
2013-12-09 07:55:00,9.9,7.8,29.97,WSW,243,0.0,0.0,91,0.00,,---,0.00,VWS V14.00,2013-12-09 13:55:00,
2013-12-09 08:00:00,10.1,8.0,29.97,West,263,0.0,2.0,91,0.00,,---,0.00,VWS V14.00,2013-12-09 14:00:00,
2013-12-09 08:05:00,10.4,8.3,29.97,West,263,0.0,2.0,91,0.00,,---,0.00,VWS V14.00,2013-12-09 14:05:00,
2013-12-09 08:10:00,10.7,8.6,29.97,West,263,0.0,2.0,91,0.00,,---,0.00,VWS V14.00,2013-12-09 14:10:00,
2013-12-09 08:15:00,11.0,8.9,29.97,West,263,0.0,0.0,91,0.00,,---,0.00,VWS V14.00,2013-12-09 14:15:00,
2013-12-09 08:20:00,11.3,9.2,29.97,West,270,0.0,3.0,91,0.00,,---,0.00,VWS V14.00,2013-12-09 14:20:00,
2013-12-09 08:25:00,11.5,9.4,29.97,West,267,0.0,2.0,91,0.00,,---,0.00,VWS V14.00,2013-12-09 14:25:00,
2013-12-09 08:30:00,11.7,9.6,29.98,SSW,207,0.0,4.0,91,0.00,,---,0.00,VWS V14.00,2013-12-09 14:30:00,
2013-12-09 08:35:00,11.9,9.8,29.98,WSW,255,0.0,2.0,91,0.00,,---,0.00,VWS V14.00,2013-12-09 14:35:00,
2013-12-09 08:40:00,11.9,9.8,29.99,West,278,0.0,3.0,91,0.00,,---,0.00,VWS V14.00,2013-12-09 14:40:00,
2013-12-09 08:45:00,12.1,10.0,29.99,SSW,205,0.0,0.0,91,0.00,,---,0.00,VWS V14.00,2013-12-09 14:45:00,
2013-12-09 08:50:00,12.2,9.8,29.98,SSW,210,0.0,0.0,90,0.00,,---,0.00,VWS V14.00,2013-12-09 14:50:00,
2013-12-09 08:55:00,12.3,9.9,29.98,West,259,0.0,2.0,90,0.00,,---,0.00,VWS V14.00,2013-12-09 14:55:00,
2013-12-09 09:00:00,12.3,9.9,29.98,South,188,2.0,2.0,90,0.00,,---,0.00,VWS V14.00,2013-12-09 15:00:00,
2013-12-09 09:05:00,12.5,10.1,29.99,West,260,0.0,2.0,90,0.00,,---,0.00,VWS V14.00,2013-12-09 15:05:00,
2013-12-09 09:10:00,12.6,10.2,29.99,WNW,296,1.0,3.0,90,0.00,,---,0.00,VWS V14.00,2013-12-09 15:10:00,
2013-12-09 09:11:00,12.7,10.3,29.99,West,269,0.0,4.0,90,0.00,,---,0.00,VWS V14.00,2013-12-09 15:11:00,
2013-12-09 09:15:00,12.9,10.5,29.98,WSW,244,3.0,4.0,90,0.00,,---,0.00,VWS V14.00,2013-12-09 15:15:00,
2013-12-09 09:16:00,12.9,10.5,29.98,WSW,256,2.0,5.0,90,0.00,,---,0.00,VWS V14.00,2013-12-09 15:16:00,
2013-12-09 09:20:00,13.1,10.7,29.98,SW,234,0.0,5.0,90,0.00,,---,0.00,VWS V14.00,2013-12-09 15:20:00,
2013-12-09 09:21:00,13.2,10.8,29.98,West,260,2.0,3.0,90,0.00,,---,0.00,VWS V14.00,2013-12-09 15:21:00,
2013-12-09 09:25:00,13.4,11.0,29.98,WSW,240,1.0,5.0,90,0.00,,---,0.00,VWS V14.00,2013-12-09 15:25:00,
2013-12-09 09:26:00,13.4,11.0,29.98,SW,231,0.0,4.0,90,0.00,,---,0.00,VWS V14.00,2013-12-09 15:26:00,
2013-12-09 09:30:00,13.6,11.0,29.98,South,176,2.0,5.0,89,0.00,,---,0.00,VWS V14.00,2013-12-09 15:30:00,
2013-12-09 09:31:00,13.7,11.1,29.98,West,270,2.0,2.0,89,0.00,,---,0.00,VWS V14.00,2013-12-09 15:31:00,
2013-12-09 09:35:00,14.1,11.5,29.98,WSW,248,1.0,5.0,89,0.00,,---,0.00,VWS V14.00,2013-12-09 15:35:00,
2013-12-09 09:36:00,14.2,11.6,29.98,SSW,196,2.0,4.0,89,0.00,,---,0.00,VWS V14.00,2013-12-09 15:36:00,
2013-12-09 09:40:00,14.3,11.4,29.97,WSW,250,1.0,5.0,88,0.00,,---,0.00,VWS V14.00,2013-12-09 15:40:00,
2013-12-09 09:41:00,14.2,11.3,29.97,WSW,245,0.0,4.0,88,0.00,,---,0.00,VWS V14.00,2013-12-09 15:41:00,
2013-12-09 09:45:00,14.3,11.4,29.98,SSE,154,1.0,5.0,88,0.00,,---,0.00,VWS V14.00,2013-12-09 15:45:00,
2013-12-09 09:46:00,14.4,11.5,29.97,NW,313,3.0,5.0,88,0.00,,---,0.00,VWS V14.00,2013-12-09 15:46:00,
2013-12-09 09:50:00,14.4,11.2,29.98,West,265,5.0,5.0,87,0.00,,---,0.00,VWS V14.00,2013-12-09 15:50:00,
2013-12-09 09:51:00,14.4,11.2,29.98,South,191,0.0,7.0,87,0.00,,---,0.00,VWS V14.00,2013-12-09 15:51:00,
2013-12-09 09:55:00,14.4,11.2,29.98,WSW,257,0.0,7.0,87,0.00,,---,0.00,VWS V14.00,2013-12-09 15:55:00,
2013-12-09 09:56:00,14.5,11.3,29.98,WSW,248,4.0,5.0,87,0.00,,---,0.00,VWS V14.00,2013-12-09 15:56:00,
2013-12-09 10:00:00,14.6,11.4,29.98,WNW,295,0.0,5.0,87,0.00,,---,0.00,VWS V14.00,2013-12-09 16:00:00,
2013-12-09 10:01:00,14.7,11.3,29.98,NW,309,2.0,3.0,86,0.00,,---,0.00,VWS V14.00,2013-12-09 16:01:00,
2013-12-09 10:05:00,14.8,11.4,29.98,WNW,296,0.0,3.0,86,0.00,,---,0.00,VWS V14.00,2013-12-09 16:05:00,
2013-12-09 10:06:00,14.8,11.4,29.98,West,273,2.0,7.0,86,0.00,,---,0.00,VWS V14.00,2013-12-09 16:06:00,
2013-12-09 10:10:00,14.8,11.1,29.98,West,279,0.0,7.0,85,0.00,,---,0.00,VWS V14.00,2013-12-09 16:10:00,
2013-12-09 10:11:00,14.9,11.2,29.98,WSW,248,0.0,4.0,85,0.00,,---,0.00,VWS V14.00,2013-12-09 16:11:00,
2013-12-09 10:15:00,15.3,11.6,29.98,West,268,1.0,4.0,85,0.00,,---,0.00,VWS V14.00,2013-12-09 16:15:00,
2013-12-09 10:16:00,15.6,11.9,29.98,SW,234,2.0,3.0,85,0.00,,---,0.00,VWS V14.00,2013-12-09 16:16:00,
2013-12-09 10:20:00,16.1,12.1,29.97,WNW,290,0.0,3.0,84,0.00,,---,0.00,VWS V14.00,2013-12-09 16:20:00,
2013-12-09 10:25:00,16.0,11.5,29.98,NW,319,1.0,9.0,82,0.00,,---,0.00,VWS V14.00,2013-12-09 16:25:00,
2013-12-09 10:30:00,15.8,11.3,29.98,WNW,284,3.0,9.0,82,0.00,,---,0.00,VWS V14.00,2013-12-09 16:30:00,
2013-12-09 10:31:00,15.8,11.0,29.98,West,259,0.0,11.0,81,0.00,,---,0.00,VWS V14.00,2013-12-09 16:31:00,
2013-12-09 10:35:00,15.8,11.0,29.98,WNW,298,0.0,11.0,81,0.00,,---,0.00,VWS V14.00,2013-12-09 16:35:00,
2013-12-09 10:36:00,15.8,11.0,29.98,West,260,1.0,7.0,81,0.00,,---,0.00,VWS V14.00,2013-12-09 16:36:00,
2013-12-09 10:40:00,15.9,11.1,29.98,SW,236,2.0,7.0,81,0.00,,---,0.00,VWS V14.00,2013-12-09 16:40:00,
2013-12-09 10:41:00,16.0,11.2,29.98,WNW,283,1.0,7.0,81,0.00,,---,0.00,VWS V14.00,2013-12-09 16:41:00,
2013-12-09 10:45:00,15.8,11.0,29.98,WSW,257,3.0,7.0,81,0.00,,---,0.00,VWS V14.00,2013-12-09 16:45:00,
2013-12-09 10:46:00,15.8,11.0,29.98,WNW,290,1.0,4.0,81,0.00,,---,0.00,VWS V14.00,2013-12-09 16:46:00,
2013-12-09 10:50:00,15.9,11.1,29.98,West,279,3.0,5.0,81,0.00,,---,0.00,VWS V14.00,2013-12-09 16:50:00,
2013-12-09 10:55:00,16.2,11.4,29.97,WSW,257,0.0,2.0,81,0.00,,---,0.00,VWS V14.00,2013-12-09 16:55:00,
2013-12-09 11:00:00,16.8,12.0,29.97,South,178,4.0,12.0,81,0.00,,---,0.00,VWS V14.00,2013-12-09 17:00:00,
2013-12-09 11:05:00,16.4,10.8,29.97,SSE,167,4.0,12.0,78,0.00,,---,0.00,VWS V14.00,2013-12-09 17:05:00,
2013-12-09 11:06:00,16.3,10.7,29.98,SSW,192,4.0,6.0,78,0.00,,---,0.00,VWS V14.00,2013-12-09 17:06:00,
2013-12-09 11:10:00,16.6,11.2,29.97,SSW,198,3.0,6.0,79,0.00,,---,0.00,VWS V14.00,2013-12-09 17:10:00,
2013-12-09 11:11:00,16.7,11.1,29.97,SW,222,3.0,5.0,78,0.00,,---,0.00,VWS V14.00,2013-12-09 17:11:00,
2013-12-09 11:15:00,17.0,11.3,29.98,WSW,254,6.0,10.0,78,0.00,,---,0.00,VWS V14.00,2013-12-09 17:15:00,
2013-12-09 11:16:00,17.0,11.1,29.98,WSW,250,9.0,9.0,77,0.00,,---,0.00,VWS V14.00,2013-12-09 17:16:00,
2013-12-09 11:20:00,17.0,11.1,29.97,SSW,203,4.0,11.0,77,0.00,,---,0.00,VWS V14.00,2013-12-09 17:20:00,
2013-12-09 11:21:00,16.9,10.7,29.97,SSE,161,6.0,9.0,76,0.00,,---,0.00,VWS V14.00,2013-12-09 17:21:00,
2013-12-09 11:25:00,16.7,10.5,29.97,SSW,196,5.0,10.0,76,0.00,,---,0.00,VWS V14.00,2013-12-09 17:25:00,
2013-12-09 11:26:00,16.6,10.1,29.97,South,178,0.0,12.0,75,0.00,,---,0.00,VWS V14.00,2013-12-09 17:26:00,
2013-12-09 11:30:00,16.6,10.7,29.97,WSW,252,7.0,12.0,77,0.01,,---,0.01,VWS V14.00,2013-12-09 17:30:00,
2013-12-09 11:31:00,16.4,10.2,29.97,West,269,0.0,12.0,76,0.01,,---,0.01,VWS V14.00,2013-12-09 17:31:00,
2013-12-09 11:35:00,16.2,10.0,29.97,West,281,6.0,12.0,76,0.01,,---,0.01,VWS V14.00,2013-12-09 17:35:00,
2013-12-09 11:36:00,16.2,10.0,29.97,WSW,254,0.0,6.0,76,0.01,,---,0.01,VWS V14.00,2013-12-09 17:36:00,
2013-12-09 11:40:00,16.6,10.4,29.97,SW,231,0.0,7.0,76,0.01,,---,0.01,VWS V14.00,2013-12-09 17:40:00,
2013-12-09 11:41:00,16.7,10.5,29.97,SW,225,2.0,5.0,76,0.01,,---,0.01,VWS V14.00,2013-12-09 17:41:00,
2013-12-09 11:45:00,16.9,10.7,29.97,SSE,155,3.0,13.0,76,0.01,,---,0.01,VWS V14.00,2013-12-09 17:45:00,
2013-12-09 11:46:00,16.8,10.6,29.97,West,267,3.0,11.0,76,0.01,,---,0.01,VWS V14.00,2013-12-09 17:46:00,
2013-12-09 11:50:00,16.7,10.2,29.96,SSW,199,5.0,11.0,75,0.01,,---,0.01,VWS V14.00,2013-12-09 17:50:00,
2013-12-09 11:51:00,16.3,9.5,29.96,WNW,295,1.0,17.0,74,0.01,,---,0.01,VWS V14.00,2013-12-09 17:51:00,
2013-12-09 11:55:00,16.2,9.7,29.96,West,267,3.0,17.0,75,0.01,,---,0.01,VWS V14.00,2013-12-09 17:55:00,
2013-12-09 11:56:00,16.4,9.9,29.96,South,176,11.0,12.0,75,0.01,,---,0.01,VWS V14.00,2013-12-09 17:56:00,
2013-12-09 12:00:00,16.3,9.8,29.96,South,190,6.0,12.0,75,0.01,,---,0.01,VWS V14.00,2013-12-09 18:00:00,
2013-12-09 12:01:00,16.1,9.6,29.96,WSW,252,6.0,11.0,75,0.01,,---,0.01,VWS V14.00,2013-12-09 18:01:00,
2013-12-09 12:05:00,16.2,9.7,29.96,SSW,193,1.0,11.0,75,0.01,,---,0.01,VWS V14.00,2013-12-09 18:05:00,
2013-12-09 12:06:00,16.2,9.7,29.97,SE,141,6.0,6.0,75,0.01,,---,0.01,VWS V14.00,2013-12-09 18:06:00,
2013-12-09 12:10:00,16.2,9.4,29.97,NW,314,5.0,9.0,74,0.01,,---,0.01,VWS V14.00,2013-12-09 18:10:00,
2013-12-09 12:11:00,16.2,9.7,29.97,SSW,197,6.0,11.0,75,0.01,,---,0.01,VWS V14.00,2013-12-09 18:11:00,
2013-12-09 12:15:00,15.8,9.0,29.97,South,186,7.0,16.0,74,0.01,,---,0.01,VWS V14.00,2013-12-09 18:15:00,
2013-12-09 12:16:00,15.5,9.0,29.97,ESE,107,6.0,11.0,75,0.01,,---,0.01,VWS V14.00,2013-12-09 18:16:00,
2013-12-09 12:20:00,15.3,8.8,29.98,SE,142,10.0,13.0,75,0.01,,---,0.01,VWS V14.00,2013-12-09 18:20:00,
2013-12-09 12:21:00,15.3,8.8,29.98,SSE,167,3.0,10.0,75,0.01,,---,0.01,VWS V14.00,2013-12-09 18:21:00,
2013-12-09 12:25:00,15.4,8.9,29.98,SSE,164,5.0,12.0,75,0.01,,---,0.01,VWS V14.00,2013-12-09 18:25:00,
2013-12-09 12:26:00,15.3,8.8,29.98,South,191,12.0,12.0,75,0.01,,---,0.01,VWS V14.00,2013-12-09 18:26:00,
2013-12-09 12:30:00,15.3,8.8,29.98,SSW,194,2.0,12.0,75,0.01,,---,0.01,VWS V14.00,2013-12-09 18:30:00,
2013-12-09 12:31:00,15.3,8.8,29.98,SSE,153,5.0,17.0,75,0.00,,---,0.01,VWS V14.00,2013-12-09 18:31:00,
2013-12-09 12:35:00,15.2,8.7,29.98,WNW,298,4.0,17.0,75,0.00,,---,0.01,VWS V14.00,2013-12-09 18:35:00,
2013-12-09 12:36:00,15.2,8.7,29.99,South,190,1.0,5.0,75,0.00,,---,0.01,VWS V14.00,2013-12-09 18:36:00,
2013-12-09 12:40:00,15.5,9.0,29.99,West,263,8.0,9.0,75,0.00,,---,0.01,VWS V14.00,2013-12-09 18:40:00,
2013-12-09 12:41:00,15.5,9.0,29.98,SW,225,2.0,10.0,75,0.00,,---,0.01,VWS V14.00,2013-12-09 18:41:00,
2013-12-09 12:45:00,15.6,8.8,29.98,West,264,0.0,10.0,74,0.00,,---,0.01,VWS V14.00,2013-12-09 18:45:00,
2013-12-09 12:46:00,15.5,8.7,29.98,SSE,163,2.0,13.0,74,0.00,,---,0.01,VWS V14.00,2013-12-09 18:46:00,
2013-12-09 12:50:00,15.4,8.3,29.98,SSW,201,9.0,13.0,73,0.00,,---,0.01,VWS V14.00,2013-12-09 18:50:00,
2013-12-09 12:51:00,15.3,8.2,29.98,WSW,248,13.0,13.0,73,0.00,,---,0.01,VWS V14.00,2013-12-09 18:51:00,
2013-12-09 12:55:00,14.9,7.5,29.98,NW,310,4.0,14.0,72,0.00,,---,0.01,VWS V14.00,2013-12-09 18:55:00,
2013-12-09 12:56:00,14.7,7.3,29.98,SSE,165,1.0,7.0,72,0.00,,---,0.01,VWS V14.00,2013-12-09 18:56:00,
2013-12-09 13:00:00,14.5,7.4,29.99,WSW,256,3.0,7.0,73,0.00,,---,0.01,VWS V14.00,2013-12-09 19:00:00,
2013-12-09 13:01:00,14.6,7.5,29.99,SW,225,7.0,14.0,73,0.00,,---,0.01,VWS V14.00,2013-12-09 19:01:00,
2013-12-09 13:05:00,14.5,7.1,29.99,West,275,0.0,14.0,72,0.00,,---,0.01,VWS V14.00,2013-12-09 19:05:00,
2013-12-09 13:06:00,14.5,7.4,29.99,SW,223,3.0,6.0,73,0.00,,---,0.01,VWS V14.00,2013-12-09 19:06:00,
2013-12-09 13:10:00,14.4,7.3,29.99,SSW,207,6.0,14.0,73,0.00,,---,0.01,VWS V14.00,2013-12-09 19:10:00,
2013-12-09 13:11:00,14.3,6.9,29.99,SW,214,1.0,8.0,72,0.00,,---,0.01,VWS V14.00,2013-12-09 19:11:00,
2013-12-09 13:15:00,14.2,6.8,29.99,West,277,0.0,10.0,72,0.00,,---,0.01,VWS V14.00,2013-12-09 19:15:00,
2013-12-09 13:16:00,14.3,6.9,29.99,South,191,0.0,12.0,72,0.00,,---,0.01,VWS V14.00,2013-12-09 19:16:00,
2013-12-09 13:20:00,14.4,7.0,29.99,SSE,152,2.0,12.0,72,0.00,,---,0.01,VWS V14.00,2013-12-09 19:20:00,
2013-12-09 13:21:00,14.3,6.9,29.99,SW,215,6.0,12.0,72,0.00,,---,0.01,VWS V14.00,2013-12-09 19:21:00,
2013-12-09 13:25:00,14.1,6.4,30.00,WNW,290,1.0,15.0,71,0.00,,---,0.01,VWS V14.00,2013-12-09 19:25:00,
2013-12-09 13:26:00,14.0,6.3,30.00,West,263,0.0,7.0,71,0.00,,---,0.01,VWS V14.00,2013-12-09 19:26:00,
2013-12-09 13:30:00,14.1,6.4,29.99,SE,146,2.0,12.0,71,0.00,,---,0.01,VWS V14.00,2013-12-09 19:30:00,
2013-12-09 13:31:00,14.0,6.0,30.00,WSW,248,2.0,12.0,70,0.00,,---,0.01,VWS V14.00,2013-12-09 19:31:00,
2013-12-09 13:35:00,13.9,5.9,30.00,WSW,257,7.0,12.0,70,0.00,,---,0.01,VWS V14.00,2013-12-09 19:35:00,
2013-12-09 13:36:00,14.0,6.3,30.00,NW,304,0.0,10.0,71,0.00,,---,0.01,VWS V14.00,2013-12-09 19:36:00,
2013-12-09 13:40:00,14.1,6.4,30.00,WSW,241,4.0,10.0,71,0.00,,---,0.01,VWS V14.00,2013-12-09 19:40:00,
2013-12-09 13:41:00,13.9,5.9,30.00,West,261,0.0,14.0,70,0.00,,---,0.01,VWS V14.00,2013-12-09 19:41:00,
2013-12-09 13:45:00,13.7,5.8,30.00,West,260,1.0,17.0,70,0.00,,---,0.01,VWS V14.00,2013-12-09 19:45:00,
2013-12-09 13:46:00,13.7,5.8,30.00,West,260,4.0,11.0,70,0.00,,---,0.01,VWS V14.00,2013-12-09 19:46:00,
2013-12-09 13:50:00,13.6,5.3,30.00,SSW,201,4.0,16.0,69,0.00,,---,0.01,VWS V14.00,2013-12-09 19:50:00,
2013-12-09 13:55:00,13.6,5.3,30.00,SSW,211,2.0,4.0,69,0.00,,---,0.01,VWS V14.00,2013-12-09 19:55:00,
2013-12-09 14:00:00,13.6,5.3,30.00,WSW,250,2.0,10.0,69,0.00,,---,0.01,VWS V14.00,2013-12-09 20:00:00,
2013-12-09 14:01:00,13.7,5.4,30.00,WSW,241,2.0,6.0,69,0.00,,---,0.01,VWS V14.00,2013-12-09 20:01:00,
2013-12-09 14:05:00,13.7,5.4,30.00,WSW,249,3.0,7.0,69,0.00,,---,0.01,VWS V14.00,2013-12-09 20:05:00,
2013-12-09 14:06:00,13.7,5.1,30.01,West,263,1.0,5.0,68,0.00,,---,0.01,VWS V14.00,2013-12-09 20:06:00,
2013-12-09 14:10:00,13.5,4.9,30.01,South,174,2.0,10.0,68,0.00,,---,0.01,VWS V14.00,2013-12-09 20:10:00,
2013-12-09 14:11:00,13.4,4.5,30.01,WNW,296,3.0,12.0,67,0.00,,---,0.01,VWS V14.00,2013-12-09 20:11:00,
2013-12-09 14:15:00,13.0,4.1,30.01,WSW,242,2.0,12.0,67,0.00,,---,0.01,VWS V14.00,2013-12-09 20:15:00,
2013-12-09 14:16:00,12.9,4.0,30.01,West,272,3.0,11.0,67,0.00,,---,0.01,VWS V14.00,2013-12-09 20:16:00,
2013-12-09 14:20:00,12.6,3.7,30.02,West,277,1.0,10.0,67,0.00,,---,0.01,VWS V14.00,2013-12-09 20:20:00,
2013-12-09 14:25:00,12.3,3.5,30.02,SW,228,6.0,15.0,67,0.00,,---,0.01,VWS V14.00,2013-12-09 20:25:00,
2013-12-09 14:30:00,12.1,3.3,30.02,SSW,209,0.0,9.0,67,0.00,,---,0.01,VWS V14.00,2013-12-09 20:30:00,
2013-12-09 14:35:00,12.0,3.2,30.02,North,9,4.0,6.0,67,0.00,,---,0.01,VWS V14.00,2013-12-09 20:35:00,
2013-12-09 14:40:00,11.5,2.7,30.02,West,272,4.0,11.0,67,0.00,,---,0.01,VWS V14.00,2013-12-09 20:40:00,
2013-12-09 14:45:00,11.1,2.3,30.03,SSW,208,4.0,9.0,67,0.00,,---,0.01,VWS V14.00,2013-12-09 20:45:00,
2013-12-09 14:50:00,11.0,2.2,30.03,WSW,238,3.0,6.0,67,0.00,,---,0.01,VWS V14.00,2013-12-09 20:50:00,
2013-12-09 14:55:00,10.8,2.0,30.03,West,259,7.0,12.0,67,0.00,,---,0.01,VWS V14.00,2013-12-09 20:55:00,
2013-12-09 15:00:00,10.6,1.8,30.03,West,272,4.0,11.0,67,0.00,,---,0.01,VWS V14.00,2013-12-09 21:00:00,
2013-12-09 15:05:00,10.5,1.7,30.04,WNW,284,3.0,19.0,67,0.00,,---,0.01,VWS V14.00,2013-12-09 21:05:00,
2013-12-09 15:10:00,10.4,1.3,30.05,West,271,3.0,7.0,66,0.00,,---,0.01,VWS V14.00,2013-12-09 21:10:00,
2013-12-09 15:15:00,10.3,1.2,30.05,WNW,298,2.0,5.0,66,0.00,,---,0.01,VWS V14.00,2013-12-09 21:15:00,
2013-12-09 15:20:00,10.2,0.8,30.05,West,273,2.0,7.0,65,0.00,,---,0.01,VWS V14.00,2013-12-09 21:20:00,
2013-12-09 15:25:00,10.0,0.6,30.06,West,267,12.0,13.0,65,0.00,,---,0.01,VWS V14.00,2013-12-09 21:25:00,
2013-12-09 15:30:00,9.8,0.7,30.06,WNW,288,1.0,3.0,66,0.00,,---,0.01,VWS V14.00,2013-12-09 21:30:00,
2013-12-09 15:35:00,9.6,0.5,30.06,WNW,297,0.0,5.0,66,0.00,,---,0.01,VWS V14.00,2013-12-09 21:35:00,
2013-12-09 15:40:00,9.4,0.3,30.07,West,272,0.0,6.0,66,0.00,,---,0.01,VWS V14.00,2013-12-09 21:40:00,
2013-12-09 15:45:00,9.1,0.1,30.07,West,263,5.0,5.0,66,0.00,,---,0.01,VWS V14.00,2013-12-09 21:45:00,
2013-12-09 15:50:00,9.0,0.0,30.07,WNW,296,2.0,9.0,66,0.00,,---,0.01,VWS V14.00,2013-12-09 21:50:00,
2013-12-09 15:55:00,8.9,-0.4,30.07,WNW,282,1.0,9.0,65,0.00,,---,0.01,VWS V14.00,2013-12-09 21:55:00,
2013-12-09 16:00:00,8.6,-0.7,30.08,WNW,295,2.0,12.0,65,0.00,,---,0.01,VWS V14.00,2013-12-09 22:00:00,
2013-12-09 16:05:00,8.5,-0.5,30.08,West,260,0.0,4.0,66,0.00,,---,0.01,VWS V14.00,2013-12-09 22:05:00,
2013-12-09 16:10:00,8.3,-1.0,30.08,West,264,1.0,11.0,65,0.00,,---,0.01,VWS V14.00,2013-12-09 22:10:00,
2013-12-09 16:15:00,8.1,-1.2,30.08,West,267,0.0,3.0,65,0.00,,---,0.01,VWS V14.00,2013-12-09 22:15:00,
2013-12-09 16:20:00,7.8,-1.2,30.09,WSW,242,0.0,1.0,66,0.00,,---,0.01,VWS V14.00,2013-12-09 22:20:00,
2013-12-09 16:25:00,7.6,-1.4,30.09,WSW,242,0.0,4.0,66,0.00,,---,0.01,VWS V14.00,2013-12-09 22:25:00,
2013-12-09 16:30:00,7.2,-1.4,30.09,West,259,0.0,5.0,67,0.00,,---,0.01,VWS V14.00,2013-12-09 22:30:00,
2013-12-09 16:35:00,6.9,-1.7,30.10,WSW,254,0.0,3.0,67,0.00,,---,0.01,VWS V14.00,2013-12-09 22:35:00,
2013-12-09 16:40:00,6.7,-1.6,30.10,WSW,244,2.0,4.0,68,0.00,,---,0.01,VWS V14.00,2013-12-09 22:40:00,
2013-12-09 16:45:00,6.4,-1.9,30.10,WSW,248,0.0,5.0,68,0.00,,---,0.01,VWS V14.00,2013-12-09 22:45:00,
2013-12-09 16:50:00,6.3,-1.7,30.10,SW,221,0.0,3.0,69,0.00,,---,0.01,VWS V14.00,2013-12-09 22:50:00,
2013-12-09 16:55:00,6.1,-1.9,30.11,West,281,3.0,6.0,69,0.00,,---,0.01,VWS V14.00,2013-12-09 22:55:00,
2013-12-09 17:00:00,5.9,-2.1,30.11,WSW,242,2.0,2.0,69,0.00,,---,0.01,VWS V14.00,2013-12-09 23:00:00,
2013-12-09 17:05:00,5.6,-2.3,30.11,WSW,245,0.0,1.0,69,0.00,,---,0.01,VWS V14.00,2013-12-09 23:05:00,
2013-12-09 17:10:00,5.3,-2.3,30.11,SW,215,0.0,2.0,70,0.00,,---,0.01,VWS V14.00,2013-12-09 23:10:00,
2013-12-09 17:15:00,5.0,-2.6,30.11,West,279,0.0,3.0,70,0.00,,---,0.01,VWS V14.00,2013-12-09 23:15:00,
2013-12-09 17:20:00,4.7,-2.6,30.11,SSW,207,0.0,6.0,71,0.00,,---,0.01,VWS V14.00,2013-12-09 23:20:00,
2013-12-09 17:25:00,4.6,-2.7,30.11,West,268,2.0,2.0,71,0.00,,---,0.01,VWS V14.00,2013-12-09 23:25:00,
2013-12-09 17:30:00,4.5,-2.8,30.11,WNW,293,1.0,6.0,71,0.00,,---,0.01,VWS V14.00,2013-12-09 23:30:00,
2013-12-09 17:35:00,4.3,-3.0,30.12,West,271,0.0,4.0,71,0.00,,---,0.01,VWS V14.00,2013-12-09 23:35:00,
2013-12-09 17:40:00,4.0,-3.0,30.12,West,281,2.0,3.0,72,0.00,,---,0.01,VWS V14.00,2013-12-09 23:40:00,
2013-12-09 17:45:00,3.8,-3.2,30.12,SW,232,1.0,4.0,72,0.00,,---,0.01,VWS V14.00,2013-12-09 23:45:00,
2013-12-09 17:50:00,3.6,-3.4,30.13,WSW,239,0.0,4.0,72,0.00,,---,0.01,VWS V14.00,2013-12-09 23:50:00,
2013-12-09 17:55:00,3.4,-3.3,30.13,SW,227,0.0,0.0,73,0.00,,---,0.01,VWS V14.00,2013-12-09 23:55:00,
2013-12-09 18:00:00,3.2,-3.5,30.14,SW,227,0.0,0.0,73,0.00,,---,0.01,VWS V14.00,2013-12-10 00:00:00,
2013-12-09 18:05:00,2.9,-3.8,30.14,WSW,254,0.0,3.0,73,0.00,,---,0.01,VWS V14.00,2013-12-10 00:05:00,
2013-12-09 18:10:00,2.8,-3.9,30.14,West,261,0.0,2.0,73,0.00,,---,0.01,VWS V14.00,2013-12-10 00:10:00,
2013-12-09 18:15:00,2.8,-3.9,30.13,WSW,256,0.0,1.0,73,0.00,,---,0.01,VWS V14.00,2013-12-10 00:15:00,
2013-12-09 18:20:00,2.7,-4.0,30.13,SW,236,0.0,4.0,73,0.00,,---,0.01,VWS V14.00,2013-12-10 00:20:00,
2013-12-09 18:25:00,2.6,-4.1,30.13,WSW,246,0.0,0.0,73,0.00,,---,0.01,VWS V14.00,2013-12-10 00:25:00,
2013-12-09 18:30:00,2.5,-4.2,30.13,South,188,1.0,1.0,73,0.00,,---,0.01,VWS V14.00,2013-12-10 00:30:00,
2013-12-09 18:35:00,2.4,-4.3,30.13,South,189,0.0,0.0,73,0.00,,---,0.01,VWS V14.00,2013-12-10 00:35:00,
2013-12-09 18:40:00,2.2,-4.4,30.13,West,271,1.0,5.0,73,0.00,,---,0.01,VWS V14.00,2013-12-10 00:40:00,
2013-12-09 18:45:00,2.1,-4.3,30.13,SSW,200,0.0,0.0,74,0.00,,---,0.01,VWS V14.00,2013-12-10 00:45:00,
2013-12-09 18:50:00,2.0,-4.4,30.13,SSW,205,0.0,4.0,74,0.00,,---,0.01,VWS V14.00,2013-12-10 00:50:00,
2013-12-09 18:55:00,1.9,-4.5,30.13,WSW,258,3.0,3.0,74,0.00,,---,0.01,VWS V14.00,2013-12-10 00:55:00,
2013-12-09 19:00:00,1.7,-4.7,30.13,WSW,243,2.0,2.0,74,0.00,,---,0.01,VWS V14.00,2013-12-10 01:00:00,
2013-12-09 19:05:00,1.6,-4.5,30.13,West,267,0.0,2.0,75,0.00,,---,0.01,VWS V14.00,2013-12-10 01:05:00,
2013-12-09 19:10:00,1.4,-4.7,30.13,West,281,2.0,4.0,75,0.00,,---,0.01,VWS V14.00,2013-12-10 01:10:00,
2013-12-09 19:15:00,1.3,-4.8,30.13,West,272,3.0,3.0,75,0.00,,---,0.01,VWS V14.00,2013-12-10 01:15:00,
2013-12-09 19:20:00,1.1,-4.7,30.14,WSW,257,0.0,0.0,76,0.00,,---,0.01,VWS V14.00,2013-12-10 01:20:00,
2013-12-09 19:25:00,0.9,-4.9,30.14,WSW,257,0.0,0.0,76,0.00,,---,0.01,VWS V14.00,2013-12-10 01:25:00,
2013-12-09 19:30:00,0.7,-5.1,30.14,WSW,257,0.0,1.0,76,0.00,,---,0.01,VWS V14.00,2013-12-10 01:30:00,
2013-12-09 19:35:00,0.5,-5.3,30.14,WSW,257,0.0,3.0,76,0.00,,---,0.01,VWS V14.00,2013-12-10 01:35:00,
2013-12-09 19:40:00,0.4,-5.1,30.14,WSW,258,0.0,2.0,77,0.00,,---,0.01,VWS V14.00,2013-12-10 01:40:00,
2013-12-09 19:45:00,0.3,-5.2,30.14,WSW,253,1.0,2.0,77,0.00,,---,0.01,VWS V14.00,2013-12-10 01:45:00,
2013-12-09 19:50:00,0.4,-5.1,30.14,WSW,253,0.0,0.0,77,0.00,,---,0.01,VWS V14.00,2013-12-10 01:50:00,
2013-12-09 19:55:00,0.3,-5.2,30.14,West,279,0.0,4.0,77,0.00,,---,0.01,VWS V14.00,2013-12-10 01:55:00,
2013-12-09 20:00:00,0.4,-5.1,30.14,WSW,252,1.0,3.0,77,0.00,,---,0.01,VWS V14.00,2013-12-10 02:00:00,
2013-12-09 20:05:00,0.4,-5.1,30.14,West,265,4.0,7.0,77,0.00,,---,0.01,VWS V14.00,2013-12-10 02:05:00,
2013-12-09 20:10:00,0.5,-5.0,30.14,West,259,0.0,6.0,77,0.00,,---,0.01,VWS V14.00,2013-12-10 02:10:00,
2013-12-09 20:15:00,0.4,-5.1,30.14,West,259,0.0,0.0,77,0.00,,---,0.01,VWS V14.00,2013-12-10 02:15:00,
2013-12-09 20:20:00,0.2,-5.3,30.14,WSW,250,0.0,1.0,77,0.00,,---,0.01,VWS V14.00,2013-12-10 02:20:00,
2013-12-09 20:25:00,0.1,-5.4,30.14,West,260,0.0,0.0,77,0.00,,---,0.01,VWS V14.00,2013-12-10 02:25:00,
2013-12-09 20:30:00,0.1,-5.5,30.14,West,260,2.0,4.0,77,0.00,,---,0.01,VWS V14.00,2013-12-10 02:30:00,
2013-12-09 20:35:00,-0.1,-5.6,30.14,West,275,0.0,4.0,77,0.00,,---,0.01,VWS V14.00,2013-12-10 02:35:00,
2013-12-09 20:40:00,-0.3,-5.5,30.13,West,275,0.0,0.0,78,0.00,,---,0.01,VWS V14.00,2013-12-10 02:40:00,
2013-12-09 20:45:00,-0.5,-5.7,30.13,West,275,0.0,1.0,78,0.00,,---,0.01,VWS V14.00,2013-12-10 02:45:00,
2013-12-09 20:50:00,-0.7,-5.9,30.13,West,275,0.0,0.0,78,0.00,,---,0.01,VWS V14.00,2013-12-10 02:50:00,
2013-12-09 20:55:00,-0.8,-6.0,30.13,West,275,0.0,1.0,78,0.00,,---,0.01,VWS V14.00,2013-12-10 02:55:00,
2013-12-09 21:00:00,-1.0,-6.2,30.12,West,275,0.0,0.0,78,0.00,,---,0.01,VWS V14.00,2013-12-10 03:00:00,
2013-12-09 21:05:00,-1.2,-6.1,30.12,West,275,0.0,0.0,79,0.00,,---,0.01,VWS V14.00,2013-12-10 03:05:00,
2013-12-09 21:10:00,-1.4,-6.3,30.13,West,275,0.0,2.0,79,0.00,,---,0.01,VWS V14.00,2013-12-10 03:10:00,
2013-12-09 21:15:00,-1.6,-6.5,30.13,West,275,0.0,2.0,79,0.00,,---,0.01,VWS V14.00,2013-12-10 03:15:00,
2013-12-09 21:20:00,-1.7,-6.6,30.12,West,275,0.0,0.0,79,0.00,,---,0.01,VWS V14.00,2013-12-10 03:20:00,
2013-12-09 21:25:00,-1.8,-6.7,30.12,West,275,0.0,2.0,79,0.00,,---,0.01,VWS V14.00,2013-12-10 03:25:00,
2013-12-09 21:30:00,-1.9,-6.6,30.12,West,275,0.0,0.0,80,0.00,,---,0.01,VWS V14.00,2013-12-10 03:30:00,
2013-12-09 21:35:00,-2.0,-6.6,30.11,West,275,0.0,0.0,80,0.00,,---,0.01,VWS V14.00,2013-12-10 03:35:00,
2013-12-09 21:40:00,-2.2,-6.8,30.11,West,275,0.0,0.0,80,0.00,,---,0.01,VWS V14.00,2013-12-10 03:40:00,
2013-12-09 21:45:00,-2.4,-7.0,30.12,West,275,1.0,1.0,80,0.00,,---,0.01,VWS V14.00,2013-12-10 03:45:00,
2013-12-09 21:50:00,-2.5,-7.1,30.11,West,275,1.0,1.0,80,0.00,,---,0.01,VWS V14.00,2013-12-10 03:50:00,
2013-12-09 21:55:00,-2.7,-7.1,30.12,West,275,0.0,2.0,81,0.00,,---,0.01,VWS V14.00,2013-12-10 03:55:00,
2013-12-09 22:00:00,-2.7,-7.1,30.11,West,275,0.0,0.0,81,0.00,,---,0.01,VWS V14.00,2013-12-10 04:00:00,
2013-12-09 22:05:00,-2.8,-7.2,30.11,West,275,0.0,0.0,81,0.00,,---,0.01,VWS V14.00,2013-12-10 04:05:00,
2013-12-09 22:10:00,-3.0,-7.4,30.11,West,275,0.0,0.0,81,0.00,,---,0.01,VWS V14.00,2013-12-10 04:10:00,
2013-12-09 22:15:00,-3.4,-7.8,30.10,West,275,0.0,0.0,81,0.00,,---,0.01,VWS V14.00,2013-12-10 04:15:00,
2013-12-09 22:20:00,-3.4,-7.5,30.10,West,275,0.0,0.0,82,0.00,,---,0.01,VWS V14.00,2013-12-10 04:20:00,
2013-12-09 22:25:00,-3.2,-7.3,30.10,West,275,0.0,0.0,82,0.00,,---,0.01,VWS V14.00,2013-12-10 04:25:00,
2013-12-09 22:30:00,-3.2,-7.3,30.11,West,275,0.0,0.0,82,0.00,,---,0.01,VWS V14.00,2013-12-10 04:30:00,
2013-12-09 22:35:00,-3.1,-7.0,30.11,West,275,0.0,0.0,83,0.00,,---,0.01,VWS V14.00,2013-12-10 04:35:00,
2013-12-09 22:40:00,-2.9,-6.8,30.11,West,275,0.0,0.0,83,0.00,,---,0.01,VWS V14.00,2013-12-10 04:40:00,
2013-12-09 22:45:00,-2.7,-6.6,30.10,West,275,1.0,1.0,83,0.00,,---,0.01,VWS V14.00,2013-12-10 04:45:00,
2013-12-09 22:50:00,-2.5,-6.4,30.10,West,275,0.0,0.0,83,0.00,,---,0.01,VWS V14.00,2013-12-10 04:50:00,
2013-12-09 22:55:00,-2.5,-6.4,30.10,West,275,0.0,0.0,83,0.00,,---,0.01,VWS V14.00,2013-12-10 04:55:00,
2013-12-09 23:00:00,-2.7,-6.8,30.11,West,275,0.0,0.0,82,0.00,,---,0.01,VWS V14.00,2013-12-10 05:00:00,
2013-12-09 23:01:00,-2.7,-6.8,30.11,West,275,0.0,0.0,82,0.00,,---,0.01,VWS V14.00,2013-12-10 05:01:00,
2013-12-09 23:02:00,-2.7,-6.8,30.11,West,275,0.0,0.0,82,0.00,,---,0.01,VWS V14.00,2013-12-10 05:02:00,
2013-12-09 23:05:00,-2.8,-6.9,30.11,West,275,0.0,0.0,82,0.00,,---,0.01,VWS V14.00,2013-12-10 05:05:00,
2013-12-09 23:07:00,-2.8,-6.9,30.11,West,275,0.0,0.0,82,0.00,,---,0.01,VWS V14.00,2013-12-10 05:07:00,
2013-12-09 23:10:00,-2.8,-6.9,30.11,West,275,0.0,0.0,82,0.00,,---,0.01,VWS V14.00,2013-12-10 05:10:00,
2013-12-09 23:12:00,-2.9,-7.0,30.11,West,275,0.0,0.0,82,0.00,,---,0.01,VWS V14.00,2013-12-10 05:12:00,
2013-12-09 23:15:00,-3.0,-7.1,30.11,West,275,0.0,0.0,82,0.00,,---,0.01,VWS V14.00,2013-12-10 05:15:00,
2013-12-09 23:17:00,-3.0,-7.1,30.10,West,275,0.0,0.0,82,0.00,,---,0.01,VWS V14.00,2013-12-10 05:17:00,
2013-12-09 23:20:00,-3.1,-7.2,30.10,West,275,0.0,0.0,82,0.00,,---,0.01,VWS V14.00,2013-12-10 05:20:00,
2013-12-09 23:22:00,-3.1,-7.2,30.10,West,275,0.0,0.0,82,0.00,,---,0.01,VWS V14.00,2013-12-10 05:22:00,
2013-12-09 23:25:00,-3.2,-7.3,30.10,West,275,0.0,0.0,82,0.00,,---,0.01,VWS V14.00,2013-12-10 05:25:00,
2013-12-09 23:27:00,-3.5,-7.6,30.11,West,275,0.0,0.0,82,0.00,,---,0.01,VWS V14.00,2013-12-10 05:27:00,
2013-12-09 23:30:00,-3.6,-7.7,30.11,West,275,0.0,0.0,82,0.00,,---,0.01,VWS V14.00,2013-12-10 05:30:00,
2013-12-09 23:32:00,-3.8,-7.9,30.10,West,275,0.0,0.0,82,0.00,,---,0.01,VWS V14.00,2013-12-10 05:32:00,
2013-12-09 23:35:00,-3.9,-8.0,30.10,West,275,0.0,0.0,82,0.00,,---,0.01,VWS V14.00,2013-12-10 05:35:00,
2013-12-09 23:37:00,-4.1,-7.9,30.10,West,275,0.0,0.0,83,0.00,,---,0.01,VWS V14.00,2013-12-10 05:37:00,
2013-12-09 23:40:00,-4.1,-7.9,30.10,West,275,0.0,0.0,83,0.00,,---,0.01,VWS V14.00,2013-12-10 05:40:00,
2013-12-09 23:42:00,-4.3,-8.1,30.10,West,275,0.0,0.0,83,0.00,,---,0.01,VWS V14.00,2013-12-10 05:42:00,
2013-12-09 23:45:00,-4.5,-8.3,30.10,West,275,0.0,0.0,83,0.00,,---,0.01,VWS V14.00,2013-12-10 05:45:00,
2013-12-09 23:47:00,-4.6,-8.4,30.10,West,275,0.0,0.0,83,0.00,,---,0.01,VWS V14.00,2013-12-10 05:47:00,
2013-12-09 23:50:00,-4.7,-8.5,30.10,West,275,0.0,1.0,83,0.00,,---,0.01,VWS V14.00,2013-12-10 05:50:00,
2013-12-09 23:52:00,-4.8,-8.6,30.10,West,275,0.0,0.0,83,0.00,,---,0.01,VWS V14.00,2013-12-10 05:52:00,
2013-12-09 23:55:00,-4.9,-8.7,30.10,West,275,0.0,0.0,83,0.00,,---,0.01,VWS V14.00,2013-12-10 05:55:00,
2013-12-09 23:57:00,-5.0,-8.8,30.10,West,275,0.0,0.0,83,0.00,,---,0.01,VWS V14.00,2013-12-10 05:57:00,